When you browse on this site, cookies collect data to enhance your experience and personalize the content and advertising you see.
Visit our Privacy Policy to learn more. By continuing to use the site, you agree to this use of cookies and data.
  • în România
  • Lista ţărilor
  • Pe 7 zile
  • Temperatura apei
  • Meteo pe hartă
  • Widget-uri
  • user-avatar
    Intrare

    Meteo pe oră la Agra

    Astăzi, 7 Aprilie, Marţi

    Timp Temperatura Precipitaţii Vânt Presiune Umiditate
    00:00 +29°C° 0 mm 2 m/s 742 mmHg 20%
    01:00 +28°C° 0 mm 2 m/s 741 mmHg 22%
    02:00 +27°C° 0 mm 3 m/s 741 mmHg 24%
    03:00 +27°C° 0 mm 2 m/s 741 mmHg 25%
    04:00 +26°C° 0 mm 2 m/s 741 mmHg 27%
    05:00 +26°C° 0 mm 1 m/s 741 mmHg 27%
    06:00 +28°C° 0 mm 1 m/s 741 mmHg 24%
    07:00 +30°C° 0 mm 1 m/s 742 mmHg 22%
    08:00 +30°C° 0 mm 0 m/s 742 mmHg 20%
    09:00 +34°C° 0 mm 1 m/s 742 mmHg 16%
    10:00 +38°C° 0 mm 2 m/s 742 mmHg 13%
    11:00 +39°C° 0 mm 1 m/s 743 mmHg 13%
    12:00 +40°C° 0 mm 2 m/s 742 mmHg 11%
    13:00 +42°C° 0 mm 3 m/s 741 mmHg 10%
    14:00 +42°C° 0 mm 4 m/s 740 mmHg 9%
    15:00 +42°C° 0 mm 4 m/s 739 mmHg 9%
    16:00 +41°C° 0 mm 4 m/s 739 mmHg 10%
    17:00 +40°C° 0 mm 3 m/s 739 mmHg 10%
    18:00 +38°C° 0 mm 3 m/s 739 mmHg 12%
    19:00 +36°C° 0 mm 4 m/s 740 mmHg 14%
    20:00 +34°C° 0 mm 4 m/s 740 mmHg 15%
    21:00 +33°C° 0 mm 3 m/s 740 mmHg 17%
    22:00 +31°C° 0 mm 3 m/s 740 mmHg 19%
    23:00 +30°C° 0 mm 3 m/s 740 mmHg 21%

    Mâine, 8 Aprilie, Miercuri

    Timp Temperatura Precipitaţii Vânt Presiune Umiditate
    00:00 +29°C° 0 mm 3 m/s 739 mmHg 22%
    01:00 +28°C° 0 mm 2 m/s 739 mmHg 23%
    02:00 +28°C° 0 mm 2 m/s 739 mmHg 24%
    03:00 +27°C° 0 mm 1 m/s 739 mmHg 24%
    04:00 +27°C° 0 mm 1 m/s 739 mmHg 25%
    05:00 +24°C° 0 mm 0 m/s 740 mmHg 26%
    06:00 +28°C° 0 mm 1 m/s 740 mmHg 23%
    07:00 +30°C° 0 mm 1 m/s 741 mmHg 21%
    08:00 +31°C° 0 mm 2 m/s 742 mmHg 19%
    09:00 +35°C° 0 mm 2 m/s 742 mmHg 17%
    10:00 +37°C° 0 mm 3 m/s 742 mmHg 14%
    11:00 +40°C° 0 mm 3 m/s 741 mmHg 12%
    12:00 +41°C° 0 mm 4 m/s 741 mmHg 11%
    13:00 +42°C° 0 mm 4 m/s 740 mmHg 10%
    14:00 +43°C° 0 mm 5 m/s 739 mmHg 9%
    15:00 +42°C° 0 mm 5 m/s 739 mmHg 9%
    16:00 +42°C° 0 mm 5 m/s 739 mmHg 9%
    17:00 +41°C° 0 mm 6 m/s 738 mmHg 10%
    18:00 +39°C° 0 mm 5 m/s 739 mmHg 11%
    19:00 +36°C° 0 mm 5 m/s 739 mmHg 12%
    20:00 +34°C° 0 mm 5 m/s 740 mmHg 13%
    21:00 +33°C° 0 mm 5 m/s 740 mmHg 15%
    22:00 +32°C° 0 mm 4 m/s 741 mmHg 16%
    23:00 +30°C° 0 mm 4 m/s 741 mmHg 18%

    Poimâine, 9 Aprilie, Joi

    Timp Temperatura Precipitaţii Vânt Presiune Umiditate
    00:00 +29°C° 0 mm 4 m/s 741 mmHg 19%
    01:00 +28°C° 0 mm 4 m/s 741 mmHg 20%
    02:00 +27°C° 0 mm 4 m/s 740 mmHg 21%
    03:00 +27°C° 0 mm 3 m/s 740 mmHg 22%
    04:00 +26°C° 0 mm 3 m/s 740 mmHg 24%
    05:00 +25°C° 0 mm 2 m/s 740 mmHg 25%
    06:00 +27°C° 0 mm 2 m/s 741 mmHg 23%
    07:00 +28°C° 0 mm 2 m/s 742 mmHg 21%
    08:00 +30°C° 0 mm 2 m/s 742 mmHg 19%
    09:00 +33°C° 0 mm 3 m/s 742 mmHg 16%
    10:00 +35°C° 0 mm 3 m/s 742 mmHg 13%
    11:00 +37°C° 0 mm 4 m/s 742 mmHg 10%
    12:00 +39°C° 0 mm 5 m/s 742 mmHg 9%
    13:00 +40°C° 0 mm 5 m/s 741 mmHg 8%
    14:00 +41°C° 0 mm 6 m/s 740 mmHg 7%
    15:00 +41°C° 0 mm 5 m/s 740 mmHg 7%
    16:00 +40°C° 0 mm 5 m/s 739 mmHg 8%
    17:00 +40°C° 0 mm 5 m/s 739 mmHg 8%
    18:00 +37°C° 0 mm 4 m/s 740 mmHg 9%
    19:00 +35°C° 0 mm 4 m/s 740 mmHg 11%
    20:00 +33°C° 0 mm 3 m/s 741 mmHg 13%
    21:00 +31°C° 0 mm 3 m/s 741 mmHg 14%
    22:00 +30°C° 0 mm 3 m/s 741 mmHg 16%
    23:00 +30°C° 0 mm 3 m/s 741 mmHg 18%

    10 Aprilie, Vineri

    Timp Temperatura Precipitaţii Vânt Presiune Umiditate
    00:00 +29°C° 0 mm 3 m/s 741 mmHg 18%
    01:00 +29°C° 0 mm 3 m/s 740 mmHg 18%
    02:00 +29°C° 0 mm 3 m/s 740 mmHg 19%
    03:00 +28°C° 0 mm 2 m/s 740 mmHg 20%
    04:00 +28°C° 0 mm 2 m/s 740 mmHg 20%
    05:00 +27°C° 0 mm 1 m/s 740 mmHg 21%
    06:00 +29°C° 0 mm 1 m/s 741 mmHg 19%
    07:00 +31°C° 0 mm 1 m/s 742 mmHg 17%
    08:00 +33°C° 0 mm 1 m/s 742 mmHg 15%
    09:00 +36°C° 0 mm 1 m/s 742 mmHg 13%
    10:00 +39°C° 0 mm 1 m/s 743 mmHg 11%
    11:00 +41°C° 0 mm 1 m/s 743 mmHg 9%
    12:00 +42°C° 0 mm 2 m/s 742 mmHg 9%
    13:00 +43°C° 0 mm 3 m/s 741 mmHg 8%
    14:00 +44°C° 0 mm 4 m/s 740 mmHg 8%
    15:00 +43°C° 0 mm 4 m/s 740 mmHg 8%
    16:00 +43°C° 0 mm 3 m/s 739 mmHg 8%
    17:00 +43°C° 0 mm 3 m/s 739 mmHg 8%
    18:00 +39°C° 0 mm 2 m/s 739 mmHg 9%
    19:00 +37°C° 0 mm 2 m/s 740 mmHg 10%
    20:00 +34°C° 0 mm 1 m/s 740 mmHg 12%
    21:00 +34°C° 0 mm 1 m/s 741 mmHg 12%
    22:00 +33°C° 0 mm 1 m/s 741 mmHg 12%
    23:00 +33°C° 0 mm 1 m/s 741 mmHg 13%

    11 Aprilie, Sâmbătă

    Timp Temperatura Precipitaţii Vânt Presiune Umiditate
    00:00 +32°C° 0 mm 2 m/s 741 mmHg 13%
    01:00 +31°C° 0 mm 2 m/s 741 mmHg 14%
    02:00 +30°C° 0 mm 2 m/s 740 mmHg 15%
    03:00 +29°C° 0 mm 2 m/s 741 mmHg 17%
    04:00 +29°C° 0 mm 2 m/s 741 mmHg 19%
    05:00 +28°C° 0 mm 2 m/s 741 mmHg 21%
    06:00 +30°C° 0 mm 2 m/s 741 mmHg 18%
    07:00 +33°C° 0 mm 3 m/s 742 mmHg 16%
    08:00 +35°C° 0 mm 3 m/s 743 mmHg 13%
    09:00 +38°C° 0 mm 3 m/s 742 mmHg 11%
    10:00 +40°C° 0 mm 3 m/s 742 mmHg 10%
    11:00 +44°C° 0 mm 4 m/s 742 mmHg 8%
    12:00 +44°C° 0 mm 4 m/s 741 mmHg 7%
    13:00 +46°C° 0 mm 5 m/s 741 mmHg 7%
    14:00 +47°C° 0 mm 5 m/s 740 mmHg 6%
    15:00 +46°C° 0 mm 5 m/s 739 mmHg 7%
    16:00 +44°C° 0 mm 4 m/s 739 mmHg 7%
    17:00 +44°C° 0 mm 4 m/s 738 mmHg 7%
    18:00 +40°C° 0 mm 3 m/s 738 mmHg 8%
    19:00 +38°C° 0 mm 3 m/s 739 mmHg 10%
    20:00 +36°C° 0 mm 2 m/s 739 mmHg 11%
    21:00 +35°C° 0 mm 2 m/s 739 mmHg 12%
    22:00 +34°C° 0 mm 2 m/s 740 mmHg 12%
    23:00 +32°C° 0 mm 2 m/s 740 mmHg 13%

    12 Aprilie, Duminică

    Timp Temperatura Precipitaţii Vânt Presiune Umiditate
    00:00 +31°C° 0 mm 2 m/s 740 mmHg 14%
    01:00 +31°C° 0 mm 3 m/s 739 mmHg 15%
    02:00 +30°C° 0 mm 3 m/s 739 mmHg 16%
    03:00 +29°C° 0 mm 3 m/s 739 mmHg 17%
    04:00 +29°C° 0 mm 3 m/s 739 mmHg 18%
    05:00 +28°C° 0 mm 3 m/s 739 mmHg 19%
    06:00 +31°C° 0 mm 3 m/s 740 mmHg 17%
    07:00 +34°C° 0 mm 3 m/s 741 mmHg 15%
    08:00 +36°C° 0 mm 3 m/s 742 mmHg 14%
    09:00 +38°C° 0 mm 3 m/s 741 mmHg 12%
    10:00 +40°C° 0 mm 3 m/s 741 mmHg 11%
    11:00 +43°C° 0 mm 3 m/s 741 mmHg 9%
    12:00 +43°C° 0 mm 4 m/s 741 mmHg 9%
    13:00 +44°C° 0 mm 4 m/s 740 mmHg 9%
    14:00 +45°C° 0 mm 4 m/s 739 mmHg 9%
    15:00 +44°C° 0 mm 4 m/s 739 mmHg 9%
    16:00 +44°C° 0 mm 4 m/s 738 mmHg 9%
    17:00 +43°C° 0 mm 4 m/s 738 mmHg 9%
    18:00 +40°C° 0 mm 3 m/s 738 mmHg 11%
    19:00 +38°C° 0 mm 3 m/s 738 mmHg 13%
    20:00 +36°C° 0 mm 2 m/s 739 mmHg 15%
    21:00 +35°C° 0 mm 2 m/s 739 mmHg 16%
    22:00 +34°C° 0 mm 2 m/s 739 mmHg 17%
    23:00 +32°C° 0 mm 1 m/s 739 mmHg 18%
    Arată mai mult